Volver al catálogo

STARLINK-4006

ActivoComunicacionesVLEO
NORAD 52676·PAYLOAD·🇺🇸 United States

Lanzado May 18, 2022 desde Cape Canaveral Space Force Station

Loading…

Próximos Pases (próximas 24 horas)

TLE

ActualizadoSource: CelesTrak SupGP

Época: Sep 14, 2026, 21:31 UTC

1 52676C 22053W   26257.89701389 -.00011961  00000+0 -34225-3 0  2570
2 52676  53.1587  14.4224 0001147  78.0244 267.5049 15.35402185    10

Sigue STARLINK-4006 en tiempo real con AllMySat

Download on the App Store